RYR50XY LFMU-EGGW

Flight info

Callsign RYR50XY
Flight time N/A
Altitude 36000
Route FJR DCT NG DCT MOLEN DCT MTL DCT ETREK DCT MADOT DCT MOPEM DCT CACHI DCT AVLON DCT OKRIX DCT BRY DCT CLM DCT KOPOR DCT PIREG DCT SOSUN DCT SUBIP UM733 UNDUG
Aircraft B738/M-SDE2E3FGHIRWXY/LB1

Departure

Time N/A
Airport Béziers Vias airport (LFMU)

Arrival

Time 2026-05-04 16:49
Airport London Luton Airport (EGGW)
Time Latitude Longitude Altitude Speed Heading
2026-05-04 16:23 51.10002 0.02292 22984 ft 442 kts 323°
2026-05-04 16:24 51.19909 -0.08519 20584 ft 423 kts 323°
2026-05-04 16:25 51.24704 -0.13867 19323 ft 418 kts 323°
2026-05-04 16:26 51.34030 -0.24307 17443 ft 393 kts 323°
2026-05-04 16:26 51.40439 -0.31489 16903 ft 358 kts 326°
2026-05-04 16:27 51.45121 -0.33118 16612 ft 348 kts
2026-05-04 16:28 51.51872 -0.28596 16147 ft 353 kts 26°
2026-05-04 16:28 51.58424 -0.23444 15656 ft 349 kts 25°
2026-05-04 16:29 51.67174 -0.16701 15083 ft 348 kts 25°
2026-05-04 16:30 51.73796 -0.11587 13957 ft 350 kts 25°
2026-05-04 16:31 51.77511 -0.06680 13152 ft 345 kts 47°
2026-05-04 16:31 51.82334 0.01660 12023 ft 335 kts 45°
2026-05-04 16:32 51.87107 0.09719 10992 ft 326 kts 45°
2026-05-04 16:33 51.90771 0.13595 10318 ft 314 kts
2026-05-04 16:33 51.94819 0.12282 10000 ft 287 kts 326°
2026-05-04 16:34 51.97551 0.07944 9658 ft 270 kts 307°
2026-05-04 16:34 51.98721 0.05617 9465 ft 264 kts 306°
2026-05-04 16:35 52.02058 -0.01039 8345 ft 257 kts 306°
2026-05-04 16:35 52.05447 -0.07705 7150 ft 252 kts 307°
2026-05-04 16:36 52.06566 -0.09908 6845 ft 254 kts 307°
2026-05-04 16:36 52.08765 -0.14460 6243 ft 258 kts 295°
2026-05-04 16:37 52.08568 -0.19971 5761 ft 252 kts 239°
2026-05-04 16:37 52.07503 -0.22211 5554 ft 250 kts 229°
2026-05-04 16:37 52.05160 -0.26380 5157 ft 250 kts 227°
2026-05-04 16:38 52.02778 -0.30649 5004 ft 257 kts 228°
2026-05-04 16:39 51.99470 -0.37311 4993 ft 251 kts 251°
2026-05-04 16:39 51.98459 -0.42969 5009 ft 266 kts 253°
2026-05-04 16:40 51.96672 -0.48045 5006 ft 262 kts 231°
2026-05-04 16:40 51.94364 -0.52663 5000 ft 261 kts 232°
2026-05-04 16:41 51.92142 -0.57206 4985 ft 255 kts 232°
2026-05-04 16:41 51.89581 -0.64157 4998 ft 233 kts 255°
2026-05-04 16:42 51.88340 -0.71423 4977 ft 215 kts 254°
2026-05-04 16:43 51.86747 -0.74957 4973 ft 199 kts 200°
2026-05-04 16:43 51.83987 -0.74653 4519 ft 202 kts 165°
2026-05-04 16:43 51.82664 -0.73946 4276 ft 199 kts 151°
2026-05-04 16:44 51.82458 -0.65956 3522 ft 199 kts 71°
2026-05-04 16:45 51.83196 -0.61775 3129 ft 188 kts 73°
2026-05-04 16:46 51.84161 -0.56102 2834 ft 167 kts 72°
2026-05-04 16:46 51.84757 -0.52606 2425 ft 154 kts 70°
2026-05-04 16:47 51.85296 -0.49452 2017 ft 139 kts 69°
2026-05-04 16:47 51.85831 -0.46334 1640 ft 144 kts 71°
2026-05-04 16:48 51.86618 -0.41685 1026 ft 145 kts 72°
2026-05-04 16:48 51.86906 -0.40117 800 ft 145 kts 70°
2026-05-04 16:49 51.87423 -0.37110 521 ft 111 kts 77°
2026-05-04 16:49 51.87615 -0.35997 515 ft 19 kts 72°
2026-05-04 16:50 51.87719 -0.35945 515 ft 9 kts 339°
2026-05-04 16:50 51.87750 -0.35966 515 ft 0 kts 335°
2026-05-04 16:51 51.87751 -0.35966 515 ft 0 kts 335°
2026-05-04 16:51 51.87767 -0.35985 515 ft 7 kts 318°
2026-05-04 16:51 51.87753 -0.36255 517 ft 20 kts 254°
2026-05-04 16:52 51.87668 -0.36749 522 ft 22 kts 253°
2026-05-04 16:52 51.87626 -0.36985 521 ft 23 kts 255°
2026-05-04 16:53 51.87588 -0.37393 521 ft 15 kts 295°
2026-05-04 16:53 51.87768 -0.37807 522 ft 15 kts 295°
2026-05-04 16:54 51.87818 -0.37955 522 ft 15 kts 311°
2026-05-04 16:55 51.88131 -0.37785 522 ft 10 kts 47°
2026-05-04 16:55 51.88129 -0.37711 522 ft 3 kts 166°
2026-05-04 16:56 51.88108 -0.37704 522 ft 0 kts 171°